Mosinee, WI

5:31 PM CDT on March 22, 2017 (GMT -0500)
Central Wisconsin

Weather History for KCWA - March, 2013

Change the Weather History Date:

Thursday, March 21, 2013

  Actual Average Record
Temperature  
Mean Temperature 14 °F -  
Max Temperature 24 °F 39 °F 75 °F (2012)
Min Temperature 5 °F 21 °F 5 °F (2002)
Degree Days  
Heating Degree Days 50    
Moisture  
Dew Point 6 °F    
Average Humidity 74    
Maximum Humidity 85    
Minimum Humidity 54    
Precipitation  
Precipitation 0.00 in - - ()
Sea Level Pressure  
Sea Level Pressure 29.99 in    
Wind  
Wind Speed 7 mph (WNW)    
Max Wind Speed 10 mph    
Max Gust Speed -    
Visibility 10 miles    
Events Snow    
Averages and records for this station are not official NWS values.
T = Trace of Precipitation, MM = Missing Value Source: NWS Daily Summary

Daily Weather History Graph

Daily Weather History Graph

Search for Another Location

Airport or City:

Trip Planner

Search our weather history database for the weather conditions in past years. The results will help you decide how hot, cold, wet, or windy it might be!

Date:

Astronomy

Mar. 21, 2013 Rise Set
Actual Time 6:59 AM CDT 7:12 PM CDT
Civil Twilight 6:30 AM CDT 7:41 PM CDT
Nautical Twilight 5:56 AM CDT 8:16 PM CDT
Astronomical Twilight 5:20 AM CDT 8:51 PM CDT
Moon 1:30 PM CDT (3/21) 3:33 AM CDT (3/21)
Length of Visible Light 13h 11m
Length of Day
12h 13m
Waxing Gibbous, 69% of the Moon is Illuminated
Mar 21
Waxing Gibbous
Mar 27
Full
Apr 2
Last Quarter
Apr 10
New
Apr 18
First Quarter

Hourly Weather History & Observations

Time (CDT) Temp. Windchill Dew Point Humidity Pressure Visibility Wind Dir Wind Speed Gust Speed Precip Events Conditions
12:15 AM 8.6 °F -2.6 °F 1.4 °F 73% 30.01 in 10.0 mi West 6.9 mph - N/A   Scattered Clouds
12:35 AM 8.6 °F -3.7 °F 1.4 °F 73% 30.01 in 10.0 mi West 8.1 mph - N/A   Clear
12:55 AM 8.6 °F -3.7 °F 1.4 °F 73% 30.01 in 10.0 mi West 8.1 mph - N/A   Clear
1:15 AM 8.6 °F -4.7 °F 1.4 °F 73% 30.01 in 10.0 mi West 9.2 mph - N/A   Scattered Clouds
1:35 AM 6.8 °F -5.9 °F 1.4 °F 79% 30.00 in 10.0 mi West 8.1 mph - N/A   Clear
1:55 AM 8.6 °F -3.7 °F 3.2 °F 79% 30.00 in 10.0 mi WNW 8.1 mph - N/A   Clear
2:15 AM 8.6 °F -4.7 °F 3.2 °F 79% 30.00 in 10.0 mi WNW 9.2 mph - N/A   Clear
2:35 AM 6.8 °F -4.8 °F 1.4 °F 79% 30.00 in 10.0 mi WNW 6.9 mph - N/A   Clear
2:55 AM 6.8 °F -5.9 °F 3.2 °F 85% 30.00 in 10.0 mi WNW 8.1 mph - N/A   Clear
3:15 AM 6.8 °F -4.8 °F 3.2 °F 85% 30.01 in 10.0 mi WNW 6.9 mph - N/A   Clear
3:35 AM 6.8 °F -3.5 °F 1.4 °F 79% 30.01 in 10.0 mi WNW 5.8 mph - N/A   Clear
4:15 AM 5.0 °F -5.6 °F 1.4 °F 85% 30.00 in 10.0 mi WNW 5.8 mph - N/A   Clear
4:35 AM 6.8 °F -3.5 °F 3.2 °F 85% 29.99 in 10.0 mi WNW 5.8 mph - N/A   Clear
4:55 AM 6.8 °F -4.8 °F 3.2 °F 85% 29.98 in 10.0 mi WNW 6.9 mph - N/A   Clear
5:15 AM 6.8 °F -2.0 °F 3.2 °F 85% 29.98 in 10.0 mi WNW 4.6 mph - N/A   Clear
5:35 AM 6.8 °F -2.0 °F 3.2 °F 85% 29.98 in 10.0 mi WNW 4.6 mph - N/A   Clear
5:47 AM 5.0 °F -5.6 °F 1.4 °F 85% 29.99 in 10.0 mi WNW 5.8 mph - N/A   Clear
6:50 AM 5.0 °F -9.1 °F 1.4 °F 85% 30.00 in 10.0 mi NW 9.2 mph - N/A   Clear
7:50 AM 6.8 °F -4.8 °F 3.2 °F 85% 30.00 in 10.0 mi NW 6.9 mph - N/A   Clear
8:50 AM 10.4 °F 2.2 °F 6.8 °F 85% 30.01 in 10.0 mi WNW 4.6 mph - N/A Snow Light Snow Showers
9:55 AM 17.6 °F 6.4 °F 10.4 °F 73% 30.01 in 10.0 mi NNW 9.2 mph - N/A Snow Light Snow Showers
10:53 AM 19.4 °F 7.9 °F 10.4 °F 68% 30.01 in 10.0 mi NNW 10.4 mph - N/A   Mostly Cloudy
11:55 AM 21.2 °F 10.9 °F 10.4 °F 63% 30.01 in 10.0 mi NW 9.2 mph - N/A   Mostly Cloudy
1:45 PM 23.0 °F 13.9 °F 10.4 °F 59% 29.99 in 10.0 mi West 8.1 mph - N/A   Clear
3:50 PM 24.8 °F 16.1 °F 10.4 °F 54% 29.97 in 10.0 mi West 8.1 mph - N/A   Clear
4:45 PM 24.8 °F 16.9 °F 12.2 °F 59% 29.97 in 10.0 mi NW 6.9 mph - N/A   Clear
5:45 PM 24.8 °F 15.3 °F 10.4 °F 54% 29.96 in 10.0 mi WSW 9.2 mph - N/A   Clear
6:45 PM 23.0 °F 13.9 °F 10.4 °F 59% 29.97 in 10.0 mi West 8.1 mph - N/A   Clear
7:45 PM 19.4 °F 12.8 °F 8.6 °F 63% 29.97 in 10.0 mi West 4.6 mph - N/A   Clear
8:45 PM 19.4 °F 7.9 °F 8.6 °F 63% 29.98 in 10.0 mi West 10.4 mph - N/A   Clear
9:45 PM 15.8 °F 8.6 °F 8.6 °F 73% 29.98 in 10.0 mi West 4.6 mph - N/A   Clear
10:15 PM 17.6 °F 9.3 °F 8.6 °F 68% 29.99 in 10.0 mi WNW 5.8 mph - N/A   Clear
10:35 PM 15.8 °F 7.2 °F 8.6 °F 73% 29.99 in 10.0 mi WNW 5.8 mph - N/A   Clear
10:55 PM 17.6 °F 8.2 °F 10.4 °F 73% 29.99 in 10.0 mi WNW 6.9 mph - N/A   Clear
11:15 PM 15.8 °F 6.1 °F 8.6 °F 73% 30.00 in 10.0 mi WNW 6.9 mph - N/A   Clear
11:35 PM 14.0 °F 2.9 °F 8.6 °F 79% 29.99 in 10.0 mi NW 8.1 mph - N/A   Clear
11:55 PM 14.0 °F 3.9 °F 8.6 °F 79% 30.00 in 10.0 mi WNW 6.9 mph - N/A   Clear